This is the latest recevied weather packets stored in our database for station/object KY4LEX. If no packets are shown the sender has not sent any weather packets the latest 1 day(s).
| Time | Temp. | Humidity | Pressure | Rain* | Wind** | Luminosity | Snow |
|---|---|---|---|---|---|---|---|
| 1777989416 | 18.89° C | 61% | 1016.7 hPa | 0 mm | 1.34 m/s, 299° | 193 W/m² | - |
| 1777989112 | 18.89° C | 61% | 1016.8 hPa | 0 mm | 0.89 m/s, 334° | 188 W/m² | - |
| 1777988808 | 18.33° C | 61% | 1016.7 hPa | 0 mm | 0.89 m/s, 295° | 178 W/m² | - |
| 1777988506 | 18.33° C | 60% | 1016.6 hPa | 0 mm | 0.89 m/s, 341° | 172 W/m² | - |
| 1777988203 | 18.33° C | 63% | 1016.7 hPa | 0 mm | 0.89 m/s, 18° | 180 W/m² | - |
| 1777987899 | 18.33° C | 65% | 1016.8 hPa | 0 mm | 0 m/s | 165 W/m² | - |
| 1777987595 | 18.33° C | 63% | 1016.7 hPa | 0 mm | 0.89 m/s, 331° | 164 W/m² | - |
| 1777987293 | 17.78° C | 64% | 1016.7 hPa | 0 mm | 0 m/s | 161 W/m² | - |
| 1777986989 | 17.78° C | 62% | 1016.8 hPa | 0 mm | 1.79 m/s, 167° | 149 W/m² | - |
| 1777986687 | 17.78° C | 63% | 1016.8 hPa | 0 mm | 0.89 m/s, 332° | 146 W/m² | - |
| 1777986385 | 17.78° C | 63% | 1017.1 hPa | 0 mm | 0 m/s | 140 W/m² | - |
| 1777986084 | 17.22° C | 65% | 1016.9 hPa | 0 mm | 0.89 m/s, 313° | 131 W/m² | - |
| 1777985779 | 17.22° C | 65% | 1017 hPa | 0 mm | 0.89 m/s, 20° | 125 W/m² | - |
| 1777985477 | 17.22° C | 65% | 1017.1 hPa | 0 mm | 0.89 m/s, 324° | 117 W/m² | - |
| 1777985173 | 17.22° C | 66% | 1016.9 hPa | 0 mm | 0.89 m/s, 23° | 109 W/m² | - |
| 1777984869 | 16.67° C | 67% | 1017 hPa | 0 mm | 0 m/s | 105 W/m² | - |
| 1777984566 | 16.67° C | 67% | 1017 hPa | 0 mm | 0 m/s | 105 W/m² | - |
| 1777984262 | 16.67° C | 67% | 1017.1 hPa | 0 mm | 0.89 m/s, 7° | 103 W/m² | - |
| 1777983959 | 16.67° C | 67% | 1016.8 hPa | 0 mm | 0.89 m/s, 11° | 99 W/m² | - |
| 1777983656 | 16.11° C | 68% | 1016.8 hPa | 0 mm | 0.45 m/s, 335° | 83 W/m² | - |
| 1777983352 | 16.11° C | 69% | 1016.8 hPa | 0 mm | 0.45 m/s, 5° | 73 W/m² | - |
| 1777983050 | 15.56° C | 70% | 1016.6 hPa | 0 mm | 0.45 m/s, 314° | 69 W/m² | - |
| 1777982746 | 15.56° C | 72% | 1016.6 hPa | 0 mm | 0 m/s | 65 W/m² | - |
| 1777982442 | 15° C | 72% | 1016.6 hPa | 0 mm | 0 m/s | 66 W/m² | - |
| 1777982136 | 15° C | 72% | 1016.6 hPa | 0 mm | 0 m/s | 65 W/m² | - |
* Rain latest hour (hover to see other rain measurements)
** Current wind speed in m/s (hover to see current wind gust speed)